[ hide orbit diagram ]
For accurate long-term ephemerides, please instead use our Horizons system.This orbit viewer was implemented using two-body methods, and hence should not be used for determining accurate long-term trajectories (over several years or decades) or planetary encounter circumstances.
[ revert to old Java-based viewer ]
Orbital Elements at Epoch 2458600.5 (2019-Apr-27.0) TDB
Reference: JPL 31 (heliocentric ecliptic J2000)
Element | Value | Uncertainty (1-sigma) | Units |
e | .1009660955637555 | 3.9103e-08 | |
a | 2.755066459536633 | 1.3677e-08 | au |
q | 2.47689815609856 | 1.0693e-07 | au |
i | 5.739571205621109 | 5.0601e-06 | deg |
node | 228.1470875331344 | 4.1908e-05 | deg |
peri | 48.2609706574331 | 4.8735e-05 | deg |
M | 153.797742181365 | 2.6028e-05 | deg |
tp | 2457886.917804526170 (2017-May-13.41780453) | 0.00011959 | TDB |
period | 1670.307942932239 4.57 | 1.2438e-05 3.405e-08 | d yr |
n | .2155291193598811 | 1.605e-09 | deg/d |
Q | 3.033234762974706 | 1.5058e-08 | au |
|
| | Orbit Determination Parameters
Additional Information
|
[ show covariance matrix ]
Physical Parameter Table
Parameter |
Symbol |
Value |
Units |
Sigma |
Reference |
Notes |
absolute magnitude |
H |
13.4 |
|
n/a |
MPO381315 |
|
diameter |
diameter |
7.504 |
km |
0.508 |
urn:nasa:pds:neowise_diameters_albedos::2.0[mainbelt] (http://adsabs.harvard.edu/abs/2011ApJ...741...68M) |
|
geometric albedo |
albedo |
0.165 |
|
0.037 |
urn:nasa:pds:neowise_diameters_albedos::2.0[mainbelt] (http://adsabs.harvard.edu/abs/2011ApJ...741...68M) |
|
|
6760 (1980 KM) Discovered 1980-May-22 by Debehogne, H. at La Silla |
Reference: DISCOVERY.DB | Last Updated: 2003-08-29 |
|
Alternate Designations
1980 KM = 1986 TF18 = 1990 TA5 |
|
|